, MT

(GMT )
West Yellowstone

Weather History for KWYS - June, 2013

Change the Weather History Date:

Sunday, June 23, 2013

  Actual Average Record
Temperature  
Mean Temperature 47 °F -  
Max Temperature 66 °F 70 °F 82 °F (2012)
Min Temperature 28 °F 37 °F 26 °F (2017)
Degree Days  
Heating Degree Days 18    
Moisture  
Dew Point 45 °F    
Average Humidity 86    
Maximum Humidity 100    
Minimum Humidity 80    
Precipitation  
Precipitation 0.00 in - - ()
Sea Level Pressure  
Sea Level Pressure 30.01 in    
Wind  
Wind Speed 4 mph (SSW)    
Max Wind Speed 21 mph    
Max Gust Speed 32 mph    
Visibility 8 miles    
Events Fog    
Averages and records for this station are not official NWS values.
T = Trace of Precipitation, MM = Missing Value Source: NWS Daily Summary

Daily Weather History Graph

Daily Weather History Graph

Search for Another Location

Airport or City:

Trip Planner

Search our weather history database for the weather conditions in past years. The results will help you decide how hot, cold, wet, or windy it might be!

Date:

Astronomy

Jun. 23, 2013 Rise Set
Actual Time 5:39 AM MDT 9:13 PM MDT
Civil Twilight 5:02 AM MDT 9:51 PM MDT
Nautical Twilight 4:13 AM MDT 10:40 PM MDT
Astronomical Twilight 3:08 AM MDT 11:44 PM MDT
Moon 9:25 PM MDT 6:04 AM MDT
Length of Visible Light 16h 48m
Length of Day
15h 34m
Full, 100% of the Moon is Illuminated
Jun 23
Full
Jun 29
Last Quarter
Jul 8
New
Jul 15
First Quarter
Jul 22
Full

Hourly Weather History & Observations

Time (MDT) Temp. Windchill Dew Point Humidity Pressure Visibility Wind Dir Wind Speed Gust Speed Precip Events Conditions
12:10 AM 39.2 °F - 33.8 °F 81% 30.13 in 10.0 mi Calm Calm - N/A   Overcast
12:30 AM 37.4 °F - 32.0 °F 81% 30.12 in 10.0 mi Calm Calm - N/A   Mostly Cloudy
12:50 AM 35.6 °F - 32.0 °F 87% 30.12 in 10.0 mi Calm Calm - N/A   Scattered Clouds
1:10 AM 35.6 °F - 32.0 °F 87% 30.11 in 10.0 mi Calm Calm - N/A   Partly Cloudy
1:30 AM 33.8 °F - 30.2 °F 87% 30.10 in 10.0 mi Calm Calm - N/A   Scattered Clouds
1:50 AM 32.0 °F - 28.4 °F 87% 30.10 in 7.0 mi Calm Calm - N/A   Scattered Clouds
2:10 AM 32.0 °F - 28.4 °F 87% 30.10 in 5.0 mi Calm Calm - N/A   Mostly Cloudy
2:30 AM 32.0 °F - 28.4 °F 87% 30.10 in 10.0 mi Calm Calm - N/A   Mostly Cloudy
2:50 AM 32.0 °F - 26.6 °F 80% 30.10 in 10.0 mi Calm Calm - N/A   Scattered Clouds
3:10 AM 30.2 °F - 26.6 °F 86% 30.10 in 10.0 mi Calm Calm - N/A   Scattered Clouds
3:30 AM 30.2 °F - 26.6 °F 86% 30.10 in 10.0 mi Calm Calm - N/A   Partly Cloudy
3:50 AM 28.4 °F - 24.8 °F 86% 30.09 in 10.0 mi Calm Calm - N/A   Scattered Clouds
4:10 AM 28.4 °F - 24.8 °F 86% 30.09 in 10.0 mi Calm Calm - N/A   Overcast
4:30 AM 30.2 °F - 26.6 °F 86% 30.09 in 0.5 mi Calm Calm - N/A Fog Light Freezing Fog
4:50 AM 30.2 °F - 26.6 °F 86% 30.09 in 0.2 mi Calm Calm - N/A Fog Light Freezing Fog
5:10 AM 30.2 °F - 26.6 °F 86% 30.08 in 0.5 mi Calm Calm - N/A Fog Light Freezing Fog
5:30 AM 32.0 °F - 28.4 °F 87% 30.08 in 0.2 mi Calm Calm - N/A Fog Fog
5:50 AM 32.0 °F - 28.4 °F 87% 30.08 in 0.2 mi Calm Calm - N/A Fog Fog
6:10 AM 32.0 °F - 28.4 °F 87% 30.08 in 0.2 mi Calm Calm - N/A Fog Fog
6:30 AM 33.8 °F - 30.2 °F 87% 30.07 in 0.2 mi Calm Calm - N/A Fog Fog
6:50 AM 35.6 °F - 32.0 °F 87% 30.07 in 0.2 mi Calm Calm - N/A Fog Fog
7:10 AM 37.4 °F - 32.0 °F 81% 30.07 in 0.2 mi Calm Calm - N/A   Haze
7:30 AM 37.4 °F - 37.4 °F 100% 30.07 in 0.2 mi Calm Calm - N/A Fog Fog
7:50 AM 37.4 °F 34.9 °F 37.4 °F 100% 30.07 in 0.2 mi SW 3.5 mph - N/A Fog Fog
8:10 AM 37.4 °F - 37.4 °F 100% 30.07 in 0.2 mi Calm Calm - N/A Fog Fog
8:30 AM 37.4 °F - 37.4 °F 100% 30.07 in 0.8 mi Calm Calm - N/A   Overcast
8:50 AM 39.2 °F - 39.2 °F 100% 30.07 in 1.8 mi Calm Calm - N/A   Overcast
9:10 AM 39.2 °F - 35.6 °F 87% 30.07 in 10.0 mi Calm Calm - N/A   Overcast
9:30 AM 41.0 °F - 37.4 °F 87% 30.06 in 10.0 mi Calm Calm - N/A   Mostly Cloudy
9:50 AM 44.6 °F - 39.2 °F 81% 30.06 in 10.0 mi Calm Calm - N/A   Partly Cloudy
10:10 AM 46.4 °F - 41.0 °F 81% 30.05 in 10.0 mi Calm Calm - N/A   Clear
10:30 AM 51.8 °F - 46.4 °F 82% 30.04 in 10.0 mi WSW 3.5 mph - N/A   Clear
10:50 AM 55.4 °F - 50.0 °F 82% 30.03 in 10.0 mi WSW 9.2 mph - N/A   Clear
11:10 AM 57.2 °F - 53.6 °F 88% 30.03 in 10.0 mi SSW 15.0 mph 21.9 mph N/A   Clear
11:30 AM 59.0 °F - 55.4 °F 88% 30.02 in 10.0 mi SSW 12.7 mph 24.2 mph N/A   Clear
11:50 AM 59.0 °F - 55.4 °F 88% 30.02 in 10.0 mi SW 13.8 mph 18.4 mph N/A   Clear
12:10 PM 59.0 °F - 55.4 °F 88% 30.01 in 10.0 mi SSW 18.4 mph 26.5 mph N/A   Clear
12:30 PM 60.8 °F - 55.4 °F 82% 30.00 in 10.0 mi SW 20.7 mph 28.8 mph N/A   Clear
12:50 PM 59.0 °F - 55.4 °F 88% 30.00 in 10.0 mi SW 16.1 mph 21.9 mph N/A   Clear
1:10 PM 62.6 °F - 57.2 °F 82% 29.99 in 10.0 mi SSW 18.4 mph 24.2 mph N/A   Clear
1:30 PM 62.6 °F - 59.0 °F 88% 29.99 in 10.0 mi SSW 12.7 mph 27.6 mph N/A   Clear
1:50 PM 62.6 °F - 57.2 °F 82% 29.98 in 10.0 mi SSW 19.6 mph 25.3 mph N/A   Clear
2:10 PM 64.4 °F - 59.0 °F 83% 29.98 in 10.0 mi South 17.3 mph 32.2 mph N/A   Clear
2:30 PM 62.6 °F - 59.0 °F 88% 29.98 in 10.0 mi SSW 9.2 mph 21.9 mph N/A   Clear
2:50 PM 64.4 °F - 59.0 °F 83% 29.97 in 10.0 mi SSW 18.4 mph 27.6 mph N/A   Clear
3:10 PM 64.4 °F - 59.0 °F 83% 29.97 in 10.0 mi SSW 16.1 mph 24.2 mph N/A   Clear
3:30 PM 66.2 °F - 60.8 °F 83% 29.96 in 10.0 mi SW 10.4 mph 21.9 mph N/A   Clear
3:50 PM 64.4 °F - 59.0 °F 83% 29.96 in 10.0 mi SW 9.2 mph - N/A   Clear
4:10 PM 66.2 °F - 62.6 °F 88% 29.95 in 10.0 mi SW 10.4 mph 20.7 mph N/A   Clear
4:30 PM 66.2 °F - 62.6 °F 88% 29.95 in 10.0 mi SSW 16.1 mph 25.3 mph N/A   Clear
4:50 PM 64.4 °F - 60.8 °F 88% 29.95 in 10.0 mi SW 8.1 mph 26.5 mph N/A   Clear
5:10 PM 66.2 °F - 60.8 °F 83% 29.94 in 10.0 mi SW 11.5 mph 24.2 mph N/A   Clear
5:30 PM 64.4 °F - 59.0 °F 83% 29.94 in 10.0 mi SSW 11.5 mph 17.3 mph N/A   Clear
5:50 PM 66.2 °F - 60.8 °F 83% 29.94 in 10.0 mi SW 11.5 mph - N/A   Clear
6:10 PM 66.2 °F - 62.6 °F 88% 29.93 in 10.0 mi South 12.7 mph - N/A   Clear
6:30 PM 66.2 °F - 62.6 °F 88% 29.93 in 10.0 mi SSW 10.4 mph 17.3 mph N/A   Clear
6:50 PM 66.2 °F - 62.6 °F 88% 29.93 in 10.0 mi SSW 15.0 mph 19.6 mph N/A   Clear
7:10 PM 64.4 °F - 60.8 °F 88% 29.93 in 10.0 mi SSW 11.5 mph 16.1 mph N/A   Clear
7:30 PM 66.2 °F - 60.8 °F 83% 29.93 in 10.0 mi SSW 8.1 mph 16.1 mph N/A   Clear
7:50 PM 64.4 °F - 59.0 °F 83% 29.93 in 10.0 mi SW 9.2 mph 16.1 mph N/A   Clear
8:10 PM 64.4 °F - 59.0 °F 83% 29.93 in 10.0 mi SW 6.9 mph - N/A   Clear
8:30 PM 64.4 °F - 59.0 °F 83% 29.93 in 10.0 mi SSW 8.1 mph - N/A   Clear
8:50 PM 60.8 °F - 55.4 °F 82% 29.93 in 10.0 mi South 3.5 mph - N/A   Clear
9:10 PM 57.2 °F - 53.6 °F 88% 29.92 in 10.0 mi SE 3.5 mph - N/A   Clear
9:30 PM 53.6 °F - 48.2 °F 82% 29.92 in 10.0 mi Calm Calm - N/A   Clear
9:50 PM 51.8 °F - 46.4 °F 82% 29.92 in 10.0 mi Calm Calm - N/A   Clear
10:10 PM 50.0 °F - 46.4 °F 87% 29.92 in 10.0 mi Calm Calm - N/A   Clear
10:30 PM 50.0 °F - 46.4 °F 87% 29.92 in 10.0 mi South 4.6 mph - N/A   Clear
10:50 PM 46.4 °F - 42.8 °F 87% 29.92 in 10.0 mi Calm Calm - N/A   Clear
11:10 PM 42.8 °F - 39.2 °F 87% 29.91 in 10.0 mi Calm Calm - N/A   Clear
11:30 PM 41.0 °F - 37.4 °F 87% 29.91 in 10.0 mi Calm Calm - N/A   Clear
11:50 PM 39.2 °F - 35.6 °F 87% 29.90 in 10.0 mi Calm Calm - N/A   Clear